Flag for Australia Weather past 2 weeks in Perth, Western Australia, Australia

Now
79 °F

Clear.


Feels Like: 79 °F
Forecast: 65 / 86 °F
Wind: 13 mph from East

Location: Belmont Perth Airport

Current Time: Mar 3, 2015 at 9:35:36 PM

Latest Report: Mar 3, 2015 at 9:00 PM


Visibility: 10 mi

Pressure: 30.07 "Hg

Humidity: 34%

Dew point: 48 °F

Location of PerthLocation

Historic Weather in Perth — Graph

°F

Perth temperature yesterday

Maximum temperature yesterday: 81 °F (at 1:00 PM)
Minimum temperature yesterday: 68 °F (at 2:30 AM)
Average temperature yesterday: 73 °F

Past Weeks' High & Low Weather Summary

 TemperatureHumidityPressure
High100 °F (Feb 24, 11:30 AM)100% (Feb 25, 5:30 AM)30.12 "Hg (Feb 25, 5:30 AM)
Low61 °F (Feb 21, 4:30 AM)19% (Feb 28, 3:30 PM)29.65 "Hg (Feb 26, 2:00 PM)
Average77 °F54%29.87 "Hg
* Reported Feb 16 8:00 PM — Mar 3 8:00 PM, Perth, Weather by CustomWeather, © 2015

Note: Actual official high and low records may vary slightly from our data, if they occured in-between our weather recording intervals... More about our weather records

Advertising

Perth weather history for previous 24 hours

 ConditionsComfort  
Time TempWeatherWind HumidityBarometerVisibility
8:00 PM
Tue, Mar 3
81 °FClear.10 mph34%30.04 "Hg10 mi
7:30 PM81 °FClear.12 mph34%30.04 "Hg10 mi
7:00 PM82 °FClear.12 mph35%30.01 "Hg10 mi
6:30 PM84 °FClear.14 mph31%30.01 "Hg10 mi
6:00 PM86 °FClear.10 mph29%30.01 "Hg10 mi
5:30 PM86 °FSunny.6 mph29%30.01 "Hg10 mi
5:00 PM84 °FSunny.12 mph40%30.01 "Hg10 mi
4:30 PM88 °FSunny.9 mph35%30.01 "Hg10 mi
4:00 PM84 °FSunny.8 mph40%30.01 "Hg10 mi
3:30 PM86 °FSunny.10 mph33%30.01 "Hg10 mi
3:00 PM86 °FSunny.12 mph29%30.01 "Hg10 mi
2:30 PM88 °FSunny.9 mph29%30.01 "Hg10 mi
2:00 PM86 °FSunny.12 mph33%30.04 "Hg10 mi
1:30 PM88 °FSunny.10 mph31%30.04 "Hg10 mi
1:00 PM84 °FSunny.7 mph37%30.04 "Hg10 mi
12:30 PM82 °FSunny.8 mph40%30.07 "Hg10 mi
12:00 PM82 °FSunny.12 mph42%30.07 "Hg10 mi
11:30 AM81 °FSunny.9 mph45%30.09 "Hg10 mi
10:30 AM77 °FSunny.14 mph47%30.09 "Hg10 mi
10:00 AM75 °FSunny.13 mph50%30.12 "Hg10 mi
9:30 AM73 °FSunny.14 mph57%30.12 "Hg10 mi
9:00 AM73 °FSunny.17 mph53%30.12 "Hg10 mi
8:30 AM72 °FSunny.17 mph57%30.12 "Hg10 mi
8:00 AM70 °FSunny.14 mph60%30.12 "Hg10 mi
7:30 AM68 °FSunny.10 mph64%30.12 "Hg10 mi
7:00 AM66 °FSunny.14 mph68%30.09 "Hg10 mi
6:30 AM64 °FSunny.12 mph73%30.09 "Hg10 mi
6:00 AM64 °FSunny.8 mph73%30.09 "Hg10 mi
5:30 AM63 °FSunny.10 mph77%30.09 "Hg10 mi
5:00 AM64 °FClear.9 mph73%30.09 "Hg10 mi
4:30 AM64 °FClear.9 mph68%30.09 "Hg10 mi
4:00 AM64 °FClear.9 mph68%30.09 "Hg10 mi
3:30 AM64 °FClear.9 mph68%30.07 "Hg10 mi
3:00 AM64 °FClear.10 mph68%30.07 "Hg10 mi
2:30 AM64 °FClear.9 mph68%30.07 "Hg10 mi
2:00 AM64 °FClear.12 mph73%30.07 "Hg10 mi
1:00 AM66 °FClear.14 mph64%30.07 "Hg10 mi
12:30 AM66 °FClear.14 mph64%30.07 "Hg10 mi
12:00 AM68 °FClear.10 mph60%30.07 "Hg10 mi
11:30 PM
Mon, Mar 2
68 °FClear.13 mph64%30.07 "Hg10 mi
11:00 PM68 °FClear.17 mph60%30.07 "Hg10 mi
10:30 PM70 °FClear.15 mph57%30.04 "Hg10 mi
10:00 PM70 °FClear.15 mph57%30.07 "Hg10 mi
9:00 PM70 °FClear.13 mph57%30.04 "Hg10 mi
Weather by CustomWeather, © 2015

See weather overviewHow to use our weather pages